Content
SEND FEEDBACK

Daily
Averages
Monthly
Summary
United States of America

MALDEN, MISSOURI


Home > North America > United States > Missouri
Elevation: 295 feet     Latitude: 36 36N     Longitude: 089 59W

WEATHER
 
SELECT A DAY
Number of Records: 211,124;   Date Range: 1/1/95 - 10/29/14
 
SHARE

PRINT THIS DATA

[ ← Previous Day ]
WEATHER ALMANAC - JUNE 18, 2014
[ Next Day → ]
[ °C ]   °F
Weather ElementAverageHighLow
Temperature82.9 °F91 °F (2:53 pm)73 °F (5:53 am)
Dewpoint68.4 °F71.1 °F (8:53 am)66 °F (4:53 pm)
Humidity62.9 %87 % (5:53 am)45 % (2:53 pm)
Barometer30.00 in30.03 in (8:53 am)29.96 in (5:53 pm)
Wind Speed9.4 mph15 mph (1:53 pm)
Wind Gust23 mph (3:53 pm)
Weather ElementAverage
Visibility10 mi
Wind DirectionS (185.2 °)

Weather ElementTotal
Precipitation---
Cooling Degree Days17 (Base 65)
Growing Degree Days32 (Base 50)
Averaged from 23 records on June 18, 2014
WEATHER CONDITIONS BREAKOUT
WIND DIRECTION BREAKOUT
WEATHER BY HOUR - JUNE 18, 2014
[ °C ]   °F
Local TimeTemperatureDewpointHumidityBarometerVisibilityWind DirectionWind SpeedGust SpeedPrecipitationEventsConditions
1:53 AM78.1 °F69.1 °F74 %29.97 in10.0 miSSW (200°)8.1 mphClear
2:53 AM77.0 °F69.1 °F76 %29.98 in10.0 miSW (220°)8.1 mphClear
3:53 AM75.9 °F69.1 °F79 %29.99 in10.0 miSouth (170°)4.6 mphClear
4:53 AM75.0 °F69.1 °F82 %29.99 in10.0 miSSE (150°)3.5 mphClear
5:53 AM73.0 °F69.1 °F87 %30.01 in9.0 miCalmClear
6:53 AM75.9 °F70.0 °F82 %30.01 in10.0 miSSE (160°)4.6 mphClear
7:53 AM79.0 °F70.0 °F74 %30.01 in10.0 miSouth (190°)8.1 mphClear
8:53 AM81.0 °F71.1 °F72 %30.03 in10.0 miSSW (210°)9.2 mphClear
9:53 AM84.0 °F71.1 °F65 %30.02 in10.0 miSSW (200°)10.4 mphClear
10:53 AM86.0 °F71.1 °F61 %30.03 in10.0 miSouth (190°)12.7 mphClear
11:53 AM87.1 °F71.1 °F59 %30.03 in10.0 miSW (230°)12.7 mphClear
12:53 PM88.0 °F70.0 °F55 %30.02 in10.0 miSSW (200°)12.7 mphPartly Cloudy
1:53 PM90.0 °F66.9 °F46 %30.01 in10.0 miSSW (200°)15.0 mphPartly Cloudy
2:53 PM91.0 °F66.9 °F45 %29.99 in10.0 miSSW (200°)11.5 mph20.7 mphClear
3:53 PM90.0 °F66.9 °F46 %29.98 in10.0 miSouth (190°)12.7 mph23.0 mphClear
4:53 PM89.1 °F66.0 °F46 %29.98 in10.0 miSSW (200°)15.0 mph23.0 mphClear
5:53 PM89.1 °F66.9 °F48 %29.96 in10.0 miSSW (200°)13.8 mphClear
6:53 PM88.0 °F66.9 °F49 %29.96 in10.0 miSSW (200°)12.7 mphClear
7:53 PM84.9 °F66.9 °F55 %29.96 in10.0 miSouth (190°)9.2 mphClear
8:53 PM82.9 °F66.0 °F56 %29.97 in10.0 miSouth (180°)8.1 mphClear
9:53 PM81.0 °F66.9 °F62 %30.00 in10.0 miSouth (180°)6.9 mphClear
10:53 PM81.0 °F66.9 °F62 %30.01 in10.0 miSSW (200°)10.4 mphClear
11:53 PM79.0 °F66.9 °F66 %30.00 in10.0 miSSW (200°)5.8 mphClear
Hourly data recorded from KPOF, located miles away from Malden, Missouri







STORIES FROM OUR PARTNERS